Location: Jaite
(41.2884°N, 81.5737°W)
Time: 12:40:37
(UTC+00:00)

PSLV R/B - Pass Details

Date: 15 November 2025
Orbit: 561 x 590 km, 98.0° (Epoch: 06 December)

Event Time Altitude Azimuth Distance (km) Brightness Sun altitude
Rises 23:58:25 0° 167° (SSE) 2,766 6.8 -20.9°
Reaches altitude 10° 00:00:33 10° 168° (SSE) 1,868 6.0 -21.3°
Maximum altitude 00:04:36 83° 256° (WSW) 577 3.3 -22.0°
Drops below altitude 10° 00:08:39 10° 346° (NNW) 1,868 6.1 -22.8°
Sets 00:10:48 0° 347° (NNW) 2,766 7.0 -23.2°
